Location: Stoke Bliss
(52.2667°N, 2.5167°W)
Time: 02:06:21
(UTC+00:00)

Cosmos 2333 Rocket - Pass Details

Date: 03 March 2021
Orbit: 837 x 864 km, 70.8° (Epoch: 11 April)

Event Time Altitude Azimuth Distance (km) Brightness Sun altitude
Rises 20:31:03 0° 207° (SSW) 3,393 5.4 -24.5°
Reaches altitude 10° 20:33:28 10° 207° (SSW) 2,465 4.6 -24.8°
Maximum altitude 20:39:09 86° 119° (ESE) 861 2.1 -25.6°
Drops below altitude 10° 20:44:55 10° 32° (NNE) 2,500 4.6 -26.4°
Sets 20:47:23 0° 32° (NNE) 3,444 5.3 -26.7°
